Regional Weather Roundup
Issued by NWS

Home | Current Version | Previous Version | Text Only | Print | Product List | Glossary On
Versions: 1 2 3 4 5 6 7 8 9 10 11 12 13 14 15 16 17 18 19 20 21 22 23 24 25 26 27 28 29 30 31 32 33 34 35 36 37 38 39 40 41 42 43 44 45 46 47 48 49 50
556
ASUS45 KPSR 291210
RWRAZ

ARIZONA HOURLY REGIONAL WEATHER ROUNDUP
NATIONAL WEATHER SERVICE PHOENIX AZ
500 AM MST FRI APR 29 2016

NOTE: FAIR INDICATES FEW OR NO CLOUDS BELOW 12,000 FEET WITH NO
SIGNIFICANT WEATHER AND/OR OBSTRUCTIONS TO VISIBILITY.

AZZ001>003-036-291300-
NORTHWEST ARIZONA

CITY           SKY/WX    TMP DP  RH WIND       PRES   REMARKS
BULLHEAD CITY  CLEAR     57  50  77 NE5       29.87S
KINGMAN        PTCLDY    45  40  82 CALM      29.90R
6HR MIN TEMP:  44; 6HR MAX TEMP:  51;

$$

AZZ004>008-015-016-018-291300-
NORTH CENTRAL ARIZONA

CITY           SKY/WX    TMP DP  RH WIND       PRES   REMARKS
GRAND CANYON   LGT RAIN  39  36  89 W6        29.89S WCI  35
6HR MIN TEMP:  38; 6HR MAX TEMP:  39; 6HR PCP: TRACE;

WILLIAMS       CLOUDY    37  36  93 SW5       29.97S WCI  34
PRESCOTT       PTCLDY    41  39  93 NE5       29.89S
6HR MIN TEMP:  39; 6HR MAX TEMP:  44;

FLAGSTAFF      CLOUDY    34  34 100 SW5       29.90R WCI  30
6HR MIN TEMP:  34; 6HR MAX TEMP:  36; 6HR PCP:  0.01;

PAYSON         CLOUDY    46  32  57 W5        29.91S
PAGE           CLOUDY    47  44  90 CALM      29.83S
6HR MIN TEMP:  46; 6HR MAX TEMP:  47; 6HR PCP:  0.05;

$$

AZZ009>014-017-291300-
NORTHEAST ARIZONA

CITY           SKY/WX    TMP DP  RH WIND       PRES   REMARKS
WINSLOW        MOCLDY    37  28  70 CALM      29.87R
6HR MIN TEMP:  35; 6HR MAX TEMP:  46;

SAINT JOHNS    CLOUDY    41  29  62 CALM      29.87S
6HR MIN TEMP:  35; 6HR MAX TEMP:  42; 6HR PCP: TRACE;

WINDOW ROCK    MOCLDY    29  16  58 CALM      29.87R
6HR MIN TEMP:  24; 6HR MAX TEMP:  38;

SHOW LOW       CLOUDY    37  16  41 S12       29.89F WCI  30
$$

AZZ023-291300-
GREATER PHOENIX AREA

CITY           SKY/WX    TMP DP  RH WIND       PRES   REMARKS
PHOENIX        MOCLDY    65  38  36 W9        29.82R
6HR MIN TEMP:  64; 6HR MAX TEMP:  68;

BUCKEYE        MOCLDY    55  36  47 SW3       29.84S
LUKE AFB       MOCLDY    63  39  40 SW8       29.81S
6HR MIN TEMP:  63; 6HR MAX TEMP:  67; 6HR PCP: TRACE;

DEER VALLEY    CLOUDY    62  37  39 CALM      29.82S
6HR MIN TEMP:  62; 6HR MAX TEMP:  64; 6HR PCP: TRACE;

SCOTTSDALE     LGT RAIN  63  37  38 CALM      29.84S
6HR MIN TEMP:  63; 6HR MAX TEMP:  65; 6HR PCP: TRACE;

MESA-GATEWAY   MOCLDY    59  36  41 E7        29.85S
$$

AZZ027-028-291300-
SOUTHWEST MARICOPA COUNTY AND PINAL COUNTY

CITY           SKY/WX    TMP DP  RH WIND       PRES   REMARKS
CASA GRANDE    CLOUDY    57  30  35 S6        29.86S
6HR MIN TEMP:  55; 6HR MAX TEMP:  64;

GILA BEND      FAIR      58  36  43 S5        29.83S
6HR MIN TEMP:  58; 6HR MAX TEMP:  65;

$$

AZZ503-504-507>509-291300-
SOUTHEAST ARIZONA

CITY           SKY/WX    TMP DP  RH WIND       PRES   REMARKS
TUCSON         CLEAR     52  30  43 SE5       29.91R
6HR MIN TEMP:  51; 6HR MAX TEMP:  59;

DAVIS-MONTHAN  CLEAR     50  30  47 SE5       29.89S
6HR MIN TEMP:  49; 6HR MAX TEMP:  60;

NOGALES        CLEAR     39  30  70 S3        29.92S
6HR MIN TEMP:  39; 6HR MAX TEMP:  51;

SIERRA VISTA   CLEAR     45  25  45 SW6       29.93S
6HR MIN TEMP:  41; 6HR MAX TEMP:  51;

DOUGLAS        CLEAR     38  25  59 NE7       29.92F WCI  33
6HR MIN TEMP:  38; 6HR MAX TEMP:  54;

SAFFORD        CLEAR     51  25  36 N8        29.86S
6HR MIN TEMP:  47; 6HR MAX TEMP:  57;

$$

AZZ020-021-025-026-031-291300-
SOUTHWEST ARIZONA

CITY           SKY/WX    TMP DP  RH WIND       PRES   REMARKS
YUMA           CLEAR     59  43  55 W5        29.85S
6HR MIN TEMP:  59; 6HR MAX TEMP:  63;

$$

CAZ031-033-041-043-047-048-061-291300-
SOUTHERN CALIFORNIA

CITY           SKY/WX    TMP DP  RH WIND       PRES   REMARKS
DOWNTOWN L.A.  CLOUDY    58  50  75 VRB3      29.98R
6HR MIN TEMP:  57; 6HR MAX TEMP:  59;

L.A. AIRPORT   MOCLDY    55  50  82 E6        29.99R
6HR MIN TEMP:  56; 6HR MAX TEMP:  59;

SAN DIEGO      MOCLDY    60  46  59 S7        30.00R
6HR MIN TEMP:  60; 6HR MAX TEMP:  61;

BURBANK        MOCLDY    54  48  80 CALM      29.98R
6HR MIN TEMP:  54; 6HR MAX TEMP:  56;

ONTARIO        CLEAR     50  46  86 CALM      29.97F
6HR MIN TEMP:  50; 6HR MAX TEMP:  55;

RIVERSIDE      CLEAR     51  45  79 CALM      29.98S
6HR MIN TEMP:  50; 6HR MAX TEMP:  57;

PALM SPRINGS   CLEAR     60  43  53 CALM      29.86S
6HR MIN TEMP:  59; 6HR MAX TEMP:  69;

EL CENTRO NAS  CLEAR    N/A N/A N/A W8        29.85F
IMPERIAL       CLEAR     57  41  55 W6        29.83F
6HR MIN TEMP:  57; 6HR MAX TEMP:  64;

BLYTHE         PTCLDY    57  39  51 CALM      29.83R
6HR MIN TEMP:  57; 6HR MAX TEMP:  69;

NEEDLES        MOCLDY    59  53  80 SW5       29.84S
6HR MIN TEMP:  59; 6HR MAX TEMP:  65;

$$

NVZ020-UTZ003-291300-
SOUTHERN NEVADA-UTAH

CITY           SKY/WX    TMP DP  RH WIND       PRES   REMARKS
LAS VEGAS      PTCLDY    54  45  71 SW3       29.82R
6HR MIN TEMP:  53; 6HR MAX TEMP:  57;

SALT LAKE CITY MOCLDY    43  36  76 CALM      29.86R
6HR MIN TEMP:  41; 6HR MAX TEMP:  48;

$$

NMZ009-TXZ055-291300-
NEW MEXICO-WEST TEXAS

CITY           SKY/WX    TMP DP  RH WIND       PRES   REMARKS
ALBUQUERQUE    PTCLDY    43  38  82 N9        29.84F
6HR MIN TEMP:  43; 6HR MAX TEMP:  59; 6HR PCP:  0.14;

EL PASO        PTCLDY    59  20  22 W14G22    29.85R
6HR MIN TEMP:  58; 6HR MAX TEMP:  70;

$$


........................KEY........................
SKY/WX - SKY CONDITION/WEATHER
TMP    - TEMPERATURE IN FAHRENHEIT
DP     - DEW POINT IN FAHRENHEIT
RH     - RELATIVE HUMIDITY IN PERCENT
WIND   - DIRECTION AND SPEED IN MILES PER HOUR (MPH)
VRB    - VARIABLE WIND DIRECTION
PRES   - MEAN SEA LEVEL PRESSURE IN INCHES OF MERCURY
         F - FALLING PRESSURE   R - RISING PRESSURE
         S - STEADY PRESSURE
VSB    - VISIBILITY IN MILES
HX     - HEAT INDEX IN FAHRENHEIT
WCI    - WIND CHILL INDEX IN FAHRENHEIT
TC     - TEMPERATURE IN CELSIUS WHICH IS ALSO KNOWN AS
         TEMPERATURE IN CENTIGRADE
AFB    - AIR FORCE BASE
         LUKE AFB IS LUKE AIR FORCE BASE
         DAVIS-MONTHAN IS DAVIS-MONTHAN AIR FORCE BASE
NAS    - NAVAL AIR STATION
         EL CENTRO NAS IS EL CENTRO NAVAL AIR STATION
N/A    - NOT AVAILABLE





USA.gov is the U.S. government's official web portal to all federal, state and local government web resources and services.